Regional Weather Roundup
Issued by NWS Cleveland, OH

Home | Current Version | Previous Version | Text Only | Print | Product List | Glossary On
Versions: 1 2 3 4 5 6 7 8 9 10 11 12 13 14 15 16 17 18 19 20 21 22 23 24 25 26 27 28 29 30 31 32 33 34 35 36 37 38 39 40 41 42 43 44 45 46 47 48 49 50
000
ASUS41 KCLE 192112
RWRCLE
OHIO REGIONAL WEATHER ROUNDUP
NATIONAL WEATHER SERVICE WILMINGTON, OH
400 PM EST THU JAN 19 2017

NOTE: "FAIR" INDICATES FEW OR NO CLOUDS BELOW 12,000 FEET WITH NO
SIGNIFICANT WEATHER AND/OR OBSTRUCTIONS TO VISIBILITY.

OHZ001>008-015>018-024>027-034-035-043-044-192200-
   NORTHWEST OHIO

CITY           SKY/WX    TMP DP  RH WIND       PRES   REMARKS
DEFIANCE       CLOUDY    38  34  85 E6        29.97F
FINDLAY        FAIR      41  34  76 SE6       29.95F
TOLEDO EXPRESS CLOUDY    38  35  89 S5        29.97F
TOLEDO EXEC    CLOUDY    40  36  86 S7        29.98F
LIMA           FAIR      41  38  89 E6        29.94S
$$

OHZ009>014-019>023-028>033-038-089-192200-
   NORTHEAST OHIO

CITY           SKY/WX    TMP DP  RH WIND       PRES   REMARKS
CLE-HOPKINS    PTSUNNY   45  35  68 S10       30.02F
CLE-LAKEFRONT  FAIR      36  33  89 CALM      30.00S
CUY CO. ARPT   MOSUNNY   45  36  70 SW12      30.00F
LORAIN-ELYRIA  FAIR      42  34  73 S9        30.00S
ASHTABULA      CLOUDY    39  35  86 S7        30.00S
AKRON-CANTON   CLOUDY    40  34  79 S9        30.01S
WOOSTER        CLOUDY    39  35  86 S7        30.01S
MANSFIELD      FAIR      41  35  79 SE8       29.96F
YOUNGSTOWN     PTSUNNY   40  34  79 S5        30.00F
$$

OHZ042-051>053-060>062-070>072-077>081-192200-
  SOUTHWEST OHIO

CITY           SKY/WX    TMP DP  RH WIND       PRES   REMARKS
CINC-COVINGTON CLOUDY    49  41  74 E7        29.91F
CINC-LUNKEN    FAIR      51  41  68 E6        29.93F
HAMILTON       PTSUNNY   50  40  68 E6        29.94F
DAYTON         PTSUNNY   44  38  79 SE10      29.94R
WRIGHT-PAT AFB PTSUNNY   46  40  81 E7        29.93S
DAYTON GENERAL PTSUNNY   47  40  76 E8        29.91S
WILMINGTON     FAIR      48  40  73 SE7       29.93S
$$

OHZ036-037-039>041-045>050-054>059-063>069-073>076-082>088-192200-
  CENTRAL AND SOUTHEAST OHIO

CITY           SKY/WX    TMP DP  RH WIND       PRES   REMARKS
COLUMBUS       CLOUDY    45  37  73 E10       29.95F
OSU AIRPORT    FAIR      43  37  79 E8        29.95F
BOLTON FIELD   SUNNY     43  37  81 SE7       29.96F
RICKENBACK AFB   N/A     43  38  82 E9        29.96F
NEWARK         FAIR      43  35  73 SE8       29.97F
MARION         FAIR      41  36  82 E9        29.95F
LANCASTER      FAIR      46  38  73 E10       29.97F
ZANESVILLE     CLOUDY    42  36  79 SE7       29.99F
NEW PHILLY     CLOUDY    40  35  83 S7        30.03S
$$




USA.gov is the U.S. government's official web portal to all federal, state and local government web resources and services.